Location: Cella
(44.7333°N, 10.5667°E)
Time: 21:32:13
(UTC+00:00)

Cosmos 1777 Rocket - Pass Details

Date: 22 June 2021
Orbit: 757 x 776 km, 74.0° (Epoch: 28 July)

Event Time Altitude Azimuth Distance (km) Brightness Sun altitude
Rises 21:59:35 0° 340° (NNW) 3,262 8.9 -19.4°
Reaches altitude 10° 22:01:59 10° 343° (NNW) 2,332 7.7 -19.6°
Maximum altitude 22:07:17 70° 67° (ENE) 828 4.1 -19.8°
Enters shadow 22:09:16 38° 140° (SE) 1,169 4.5 -20.0°
